Salinas, CA

7:22 PM PDT on May 27, 2017 (GMT -0700)
Salinas Municipal

Weather History for KSNS - January, 2013

Change the Weather History Date:

Wednesday, January 2, 2013

  Actual Average Record
Temperature  
Mean Temperature 49 °F 51 °F  
Max Temperature 61 °F 61 °F 77 °F (2001)
Min Temperature 36 °F 41 °F 26 °F (1975)
Degree Days  
Heating Degree Days 16 14  
Month to date heating degree days 33 28  
Since 1 July heating degree days 921 1081  
Cooling Degree Days 0 0  
Month to date cooling degree days 0 0  
Year to date cooling degree days 0 0  
Moisture  
Dew Point 34 °F    
Average Humidity 60    
Maximum Humidity 85    
Minimum Humidity 35    
Precipitation  
Precipitation 0.00 in 0.08 in 1.12 in (1940)
Month to date precipitation 0.00 0.16  
Year to date precipitation 0.00 0.16  
Since 1 July precipitation 6.64  
Sea Level Pressure  
Sea Level Pressure 30.20 in    
Wind  
Wind Speed 10 mph (East)    
Max Wind Speed 21 mph    
Max Gust Speed 24 mph    
Visibility 10 miles    
Events      
T = Trace of Precipitation, MM = Missing Value Source: NWS Daily Summary

Daily Weather History Graph

Daily Weather History Graph

Search for Another Location

Airport or City:

Trip Planner

Search our weather history database for the weather conditions in past years. The results will help you decide how hot, cold, wet, or windy it might be!

Date:

Astronomy

Jan. 02, 2013 Rise Set
Actual Time 7:19 AM PST 5:02 PM PST
Civil Twilight 6:50 AM PST 5:31 PM PST
Nautical Twilight 6:18 AM PST 6:03 PM PST
Astronomical Twilight 5:46 AM PST 6:34 PM PST
Moon 10:30 PM PST (1/2) 10:12 AM PST (1/2)
Length of Visible Light 10h 40m
Length of Day
9h 43m
Waning Gibbous, 74% of the Moon is Illuminated
Jan 2
Waning Gibbous
Jan 4
Last Quarter
Jan 11
New
Jan 18
First Quarter
Jan 26
Full

Hourly Weather History & Observations

Time (PST) Temp. Windchill Dew Point Humidity Pressure Visibility Wind Dir Wind Speed Gust Speed Precip Events Conditions
12:53 AM 41.0 °F 33.9 °F 34.0 °F 76% 30.25 in 10.0 mi ESE 12.7 mph - N/A   Clear
1:53 AM 39.0 °F 31.0 °F 33.1 °F 79% 30.24 in 10.0 mi East 13.8 mph - N/A   Clear
2:53 AM 37.9 °F 30.0 °F 33.1 °F 83% 30.24 in 10.0 mi East 12.7 mph - N/A   Clear
3:53 AM 37.0 °F 29.3 °F 32.0 °F 82% 30.22 in 10.0 mi East 11.5 mph - N/A   Clear
4:53 AM 39.0 °F 32.3 °F 32.0 °F 76% 30.20 in 10.0 mi ESE 10.4 mph - N/A   Clear
5:53 AM 37.9 °F 30.0 °F 30.9 °F 76% 30.21 in 10.0 mi East 12.7 mph - N/A   Clear
6:53 AM 36.0 °F 28.5 °F 30.9 °F 82% 30.22 in 10.0 mi ENE 10.4 mph - N/A   Clear
7:53 AM 37.9 °F 30.0 °F 30.9 °F 76% 30.23 in 10.0 mi East 12.7 mph - N/A   Clear
8:53 AM 42.1 °F 34.9 °F 32.0 °F 67% 30.25 in 10.0 mi East 13.8 mph - N/A   Clear
9:53 AM 46.0 °F 39.3 °F 34.0 °F 63% 30.24 in 10.0 mi ESE 16.1 mph - N/A   Clear
10:53 AM 51.1 °F - 34.0 °F 52% 30.24 in 10.0 mi East 13.8 mph - N/A   Clear
11:53 AM 54.0 °F - 36.0 °F 51% 30.21 in 10.0 mi East 13.8 mph - N/A   Clear
12:53 PM 57.9 °F - 33.1 °F 39% 30.17 in 10.0 mi North - - N/A   Clear
1:53 PM 60.1 °F - 32.0 °F 35% 30.16 in 10.0 mi East 12.7 mph - N/A   Clear
2:53 PM 61.0 °F - 34.0 °F 36% 30.16 in 10.0 mi East 6.9 mph - N/A   Clear
3:53 PM 60.1 °F - 35.1 °F 39% 30.15 in 10.0 mi ESE 8.1 mph - N/A   Clear
4:53 PM 54.0 °F - 41.0 °F 62% 30.14 in 10.0 mi East 6.9 mph - N/A   Clear
5:53 PM 50.0 °F - 39.0 °F 66% 30.15 in 10.0 mi East 5.8 mph - N/A   Clear
6:53 PM 50.0 °F - 36.0 °F 59% 30.15 in 10.0 mi East 5.8 mph - N/A   Clear
7:53 PM 46.9 °F - 34.0 °F 61% 30.17 in 10.0 mi WNW 4.6 mph - N/A   Clear
8:53 PM 43.0 °F 41.3 °F 34.0 °F 71% 30.17 in 10.0 mi South 3.5 mph - N/A   Clear
9:53 PM 41.0 °F 37.1 °F 34.0 °F 76% 30.19 in 10.0 mi ESE 5.8 mph - N/A   Clear
10:53 PM 41.0 °F 37.1 °F 34.0 °F 76% 30.19 in 10.0 mi ESE 5.8 mph - N/A   Clear
11:53 PM 39.9 °F 35.1 °F 33.1 °F 77% 30.18 in 10.0 mi East 6.9 mph - N/A   Clear